Weather History for KCPC - February, 2014

Change the Weather History Date:

Wednesday, February 19, 2014

  Actual Average (KLBT) Record (KLBT)
Temperature  
Mean Temperature 62 °F 48 °F  
Max Temperature 78 °F 59 °F 76 °F (2014)
Min Temperature 46 °F 36 °F 19 °F (2015)
Degree Days  
Heating Degree Days 3 17  
Month to date heating degree days 365  
Since 1 July heating degree days 2084  
Cooling Degree Days 0 0  
Month to date cooling degree days 0  
Year to date cooling degree days 1  
Growing Degree Days 12 (Base 50)    
Moisture  
Dew Point 51 °F    
Average Humidity 68    
Maximum Humidity 96    
Minimum Humidity 38    
Precipitation  
Precipitation 0.00 in 0.12 in 0.71 in (2012)
Month to date precipitation 1.88  
Year to date precipitation 4.85  
Sea Level Pressure  
Sea Level Pressure 30.03 in    
Wind  
Wind Speed 5 mph (SW)    
Max Wind Speed 16 mph    
Max Gust Speed 26 mph    
Visibility 9 miles    
Events      
T = Trace of Precipitation, MM = Missing Value Source: NWS Daily Summary

Daily Weather History Graph

Daily Weather History Graph

Search for Another Location

Airport or City:

Trip Planner

Search our weather history database for the weather conditions in past years. The results will help you decide how hot, cold, wet, or windy it might be!

Date:

Astronomy

Feb. 19, 2014 Rise Set
Actual Time 6:55 AM EST 6:02 PM EST
Civil Twilight 6:30 AM EST 6:27 PM EST
Nautical Twilight 6:00 AM EST 6:57 PM EST
Astronomical Twilight 5:31 AM EST 7:26 PM EST
Moon 10:39 PM EST (2/19) 9:13 AM EST (2/19)
Length of Visible Light 11h 57m
Length of Day
11h 06m
Waning Gibbous, 80% of the Moon is Illuminated
Feb 19
Waning Gibbous
Feb 22
Last Quarter
Mar 1
New
Mar 8
First Quarter
Mar 16
Full

Hourly Weather History & Observations

Time (EST) Temp. Windchill Dew Point Humidity Pressure Visibility Wind Dir Wind Speed Gust Speed Precip Events Conditions
12:35 AM 47.1 °F - 44.8 °F 92% 30.12 in 7.0 mi Calm Calm - N/A   Clear
12:55 AM 47.3 °F - 45.1 °F 92% 30.11 in 7.0 mi Calm Calm - N/A   Clear
1:15 AM 47.8 °F - 46.2 °F 94% 30.10 in 5.0 mi Calm Calm - N/A   Clear
1:35 AM 46.0 °F - 44.2 °F 93% 30.10 in 7.0 mi Calm Calm - N/A   Clear
1:55 AM 46.4 °F 45.2 °F 44.1 °F 92% 30.09 in 7.0 mi ENE 3.5 mph - N/A   Clear
2:15 AM 48.6 °F - 47.5 °F 96% 30.09 in 4.0 mi Calm Calm - N/A   Clear
2:35 AM 48.9 °F - 47.5 °F 95% 30.08 in 3.0 mi Calm Calm - N/A   Clear
2:55 AM 48.9 °F - 47.7 °F 95% 30.08 in 4.0 mi Calm Calm - N/A   Clear
3:15 AM 50.2 °F - 49.1 °F 96% 30.07 in 3.0 mi Calm Calm - N/A   Mostly Cloudy
3:35 AM 48.9 °F - 47.7 °F 95% 30.06 in 4.0 mi Calm Calm - N/A   Overcast
3:55 AM 50.4 °F - 49.3 °F 96% 30.05 in 4.0 mi Calm Calm - N/A   Overcast
4:15 AM 52.3 °F - 51.1 °F 95% 30.05 in 4.0 mi South 4.6 mph - N/A   Overcast
4:35 AM 53.8 °F - 52.3 °F 95% 30.05 in 5.0 mi SSW 5.8 mph - N/A   Mostly Cloudy
4:55 AM 53.8 °F - 52.3 °F 95% 30.04 in 5.0 mi South 5.8 mph - N/A   Overcast
5:15 AM 55.9 °F - 53.4 °F 91% 30.04 in 10.0 mi SSW 9.2 mph - N/A   Mostly Cloudy
5:35 AM 56.7 °F - 53.8 °F 90% 30.04 in 10.0 mi SSW 8.1 mph - N/A   Mostly Cloudy
5:55 AM 57.2 °F - 54.1 °F 89% 30.05 in 10.0 mi SW 11.5 mph 17.3 mph N/A   Mostly Cloudy
6:15 AM 58.1 °F - 54.1 °F 87% 30.05 in 10.0 mi SSW 9.2 mph - N/A   Mostly Cloudy
6:35 AM 58.1 °F - 54.1 °F 87% 30.05 in 10.0 mi SSW 8.1 mph 16.1 mph N/A   Mostly Cloudy
6:55 AM 58.3 °F - 54.0 °F 86% 30.04 in 10.0 mi SSW 9.2 mph - N/A   Mostly Cloudy
7:15 AM 59.9 °F - 54.5 °F 82% 30.05 in 10.0 mi SSW 11.5 mph - N/A   Overcast
7:35 AM 59.4 °F - 54.1 °F 83% 30.05 in 10.0 mi SSW 10.4 mph - N/A   Mostly Cloudy
7:55 AM 59.2 °F - 54.3 °F 84% 30.06 in 10.0 mi SSW 9.2 mph - N/A   Scattered Clouds
8:15 AM 61.0 °F - 55.0 °F 81% 30.06 in 10.0 mi SSW 10.4 mph - N/A   Scattered Clouds
8:35 AM 61.3 °F - 55.0 °F 80% 30.06 in 10.0 mi SSW 9.2 mph - N/A   Scattered Clouds
8:55 AM 63.3 °F - 55.6 °F 76% 30.06 in 10.0 mi SSW 10.4 mph - N/A   Scattered Clouds
9:15 AM 64.6 °F - 55.8 °F 73% 30.07 in 10.0 mi SW 10.4 mph 17.3 mph N/A   Scattered Clouds
9:35 AM 65.7 °F - 55.9 °F 71% 30.07 in 10.0 mi SW 9.2 mph 21.9 mph N/A   Scattered Clouds
9:55 AM 66.9 °F - 56.1 °F 68% 30.06 in 10.0 mi SW 13.8 mph 18.4 mph N/A   Clear
10:15 AM 67.8 °F - 55.9 °F 66% 30.06 in 10.0 mi SW 11.5 mph 25.3 mph N/A   Clear
10:35 AM 69.3 °F - 56.5 °F 64% 30.04 in 10.0 mi SW 11.5 mph 24.2 mph N/A   Scattered Clouds
10:55 AM 70.5 °F - 56.7 °F 61% 30.04 in 10.0 mi SW 16.1 mph 26.5 mph N/A   Scattered Clouds
11:15 AM 72.0 °F - 56.5 °F 58% 30.03 in 10.0 mi SW 12.7 mph 19.6 mph N/A   Scattered Clouds
11:35 AM 72.9 °F - 56.3 °F 56% 30.02 in 10.0 mi SW 15.0 mph 24.2 mph N/A   Scattered Clouds
11:55 AM 73.6 °F - 55.8 °F 54% 30.01 in 10.0 mi SW 12.7 mph 20.7 mph N/A   Scattered Clouds
12:15 PM 74.1 °F - 55.4 °F 52% 30.00 in 10.0 mi SW 13.8 mph 20.7 mph N/A   Scattered Clouds
12:35 PM 74.3 °F - 53.6 °F 48% 30.00 in 10.0 mi SW 12.7 mph 24.2 mph N/A   Scattered Clouds
12:55 PM 75.4 °F - 53.1 °F 46% 29.98 in 10.0 mi WSW 10.4 mph 25.3 mph N/A   Clear
1:15 PM 75.9 °F - 52.7 °F 44% 29.97 in 10.0 mi SW 15.0 mph 19.6 mph N/A   Clear
1:35 PM 76.3 °F - 51.6 °F 42% 29.96 in 10.0 mi SW 15.0 mph 21.9 mph N/A   Clear
1:55 PM 76.8 °F - 51.1 °F 40% 29.96 in 10.0 mi SW 13.8 mph 23.0 mph N/A   Clear
2:15 PM 76.5 °F - 50.7 °F 40% 29.95 in 10.0 mi SW 15.0 mph 24.2 mph N/A   Clear
2:35 PM 77.5 °F - 51.3 °F 40% 29.95 in 10.0 mi SW 16.1 mph 21.9 mph N/A   Clear
2:55 PM 77.7 °F - 51.1 °F 39% 29.95 in 10.0 mi SW 12.7 mph 20.7 mph N/A   Clear
3:15 PM 77.7 °F - 51.1 °F 39% 29.95 in 10.0 mi WSW 12.7 mph 17.3 mph N/A   Clear
3:35 PM 78.1 °F - 50.9 °F 39% 29.95 in 10.0 mi SW 11.5 mph 18.4 mph N/A   Clear
3:55 PM 77.9 °F - 50.5 °F 38% 29.95 in 10.0 mi SW 13.8 mph 23.0 mph N/A   Clear
4:15 PM 77.9 °F - 50.0 °F 38% 29.96 in 10.0 mi SW 11.5 mph 20.7 mph N/A   Clear
4:35 PM 77.4 °F - 50.0 °F 38% 29.96 in 10.0 mi SW 8.1 mph - N/A   Clear
4:55 PM 77.0 °F - 49.5 °F 38% 29.96 in 10.0 mi WSW 6.9 mph - N/A   Clear
5:15 PM 75.7 °F - 49.3 °F 39% 29.97 in 10.0 mi SW 4.6 mph - N/A   Clear
5:35 PM 74.8 °F - 49.6 °F 41% 29.98 in 10.0 mi SW 5.8 mph - N/A   Clear
5:55 PM 73.6 °F - 50.2 °F 44% 29.98 in 10.0 mi Calm Calm - N/A   Clear
6:15 PM 71.8 °F - 49.5 °F 45% 29.99 in 10.0 mi SW 4.6 mph - N/A   Clear
6:35 PM 70.5 °F - 49.5 °F 47% 30.00 in 10.0 mi Calm Calm - N/A   Clear
6:55 PM 67.8 °F - 49.5 °F 52% 30.01 in 10.0 mi Calm Calm - N/A   Clear
7:15 PM 66.6 °F - 49.5 °F 54% 30.02 in 10.0 mi Calm Calm - N/A   Clear
7:35 PM 63.7 °F - 50.2 °F 61% 30.03 in 10.0 mi Calm Calm - N/A   Clear
7:55 PM 62.2 °F - 50.0 °F 64% 30.03 in 10.0 mi SE 3.5 mph - N/A   Clear
8:15 PM 63.9 °F - 49.3 °F 59% 30.04 in 10.0 mi Calm Calm - N/A   Clear
8:35 PM 62.6 °F - 49.3 °F 62% 30.05 in 10.0 mi Calm Calm - N/A   Clear
8:55 PM 60.3 °F - 49.5 °F 68% 30.06 in 10.0 mi Calm Calm - N/A   Clear
9:15 PM 59.5 °F - 49.5 °F 69% 30.06 in 10.0 mi Calm Calm - N/A   Clear
9:35 PM 58.3 °F - 49.3 °F 72% 30.07 in 10.0 mi Calm Calm - N/A   Clear
9:55 PM 57.6 °F - 49.3 °F 74% 30.08 in 10.0 mi Calm Calm - N/A   Clear
10:15 PM 57.2 °F - 49.3 °F 75% 30.08 in 10.0 mi Calm Calm - N/A   Clear
10:35 PM 56.3 °F - 49.3 °F 77% 30.08 in 10.0 mi SSW 3.5 mph - N/A   Clear
10:55 PM 59.5 °F - 48.6 °F 67% 30.09 in 10.0 mi South 3.5 mph - N/A   Clear
11:35 PM 56.7 °F - 48.7 °F 75% 30.08 in 10.0 mi Calm Calm - N/A   Clear
11:55 PM 57.2 °F - 48.6 °F 73% 30.10 in 10.0 mi Calm Calm - N/A   Clear